| time (UTC) | temp C | wind direction | speed KPH | gust KPH | rain 1hr cm | rain 24hr cm | rain mn cm | humidity % | barometer mb |
| 20260508115802 | 14 | 262 | 1.6 | 9.7 | 0.00 | 0.00 | 0.00 | 65 | 1016.9 |
| 20260508115604 | 14 | 147 | 3.2 | 9.7 | 0.00 | 0.00 | 0.00 | 64 | 1017.0 |
| 20260508115204 | 14 | 226 | 3.2 | 8.0 | 0.00 | 0.00 | 0.00 | 65 | 1016.9 |
| 20260508115003 | 14 | 167 | 3.2 | 8.0 | 0.00 | 0.00 | 0.00 | 66 | 1016.9 |
| 20260508114804 | 14 | 103 | 3.2 | 8.0 | 0.00 | 0.00 | 0.00 | 66 | 1016.9 |
| 20260508114602 | 15 | 220 | 3.2 | 8.0 | 0.00 | 0.00 | 0.00 | 66 | 1016.9 |
| 20260508114404 | 15 | 154 | 1.6 | 6.4 | 0.00 | 0.00 | 0.00 | 67 | 1016.9 |
| 20260508114005 | 14 | 215 | 1.6 | 8.0 | 0.00 | 0.00 | 0.00 | 66 | 1016.9 |
| 20260508113803 | 14 | 144 | 1.6 | 8.0 | 0.00 | 0.00 | 0.00 | 66 | 1016.9 |
| 20260508113604 | 14 | 157 | 4.8 | 8.0 | 0.00 | 0.00 | 0.00 | 65 | 1016.9 |
| 20260508113402 | 15 | 167 | 4.8 | 8.0 | 0.00 | 0.00 | 0.00 | 65 | 1016.9 |
| 20260508113202 | 15 | 148 | 3.2 | 8.0 | 0.00 | 0.00 | 0.00 | 64 | 1016.8 |
| 20260508113005 | 15 | 143 | 1.6 | 8.0 | 0.00 | 0.00 | 0.00 | 64 | 1016.8 |
| 20260508112802 | 15 | 112 | 3.2 | 8.0 | 0.00 | 0.00 | 0.00 | 63 | 1016.9 |
| 20260508112604 | 15 | 138 | 1.6 | 9.7 | 0.00 | 0.00 | 0.00 | 63 | 1016.8 |
| 20260508112402 | 15 | 150 | 3.2 | 9.7 | 0.00 | 0.00 | 0.00 | 62 | 1016.9 |
| 20260508112203 | 15 | 131 | 4.8 | 11.3 | 0.00 | 0.00 | 0.00 | 62 | 1016.9 |
| 20260508111803 | 15 | 160 | 4.8 | 11.3 | 0.00 | 0.00 | 0.00 | 63 | 1016.9 |
| 20260508111602 | 15 | 180 | 4.8 | 11.3 | 0.00 | 0.00 | 0.00 | 65 | 1016.9 |
| 20260508111404 | 15 | 168 | 1.6 | 12.9 | 0.00 | 0.00 | 0.00 | 65 | 1016.9 |
| 20260508111202 | 15 | 199 | 4.8 | 12.9 | 0.00 | 0.00 | 0.00 | 66 | 1016.9 |
| 20260508111005 | 15 | 125 | 3.2 | 12.9 | 0.00 | 0.00 | 0.00 | 66 | 1016.9 |
| 20260508110802 | 15 | 158 | 4.8 | 12.9 | 0.00 | 0.00 | 0.00 | 65 | 1016.9 |
| 20260508110402 | 15 | 160 | 3.2 | 9.7 | 0.00 | 0.00 | 0.00 | 64 | 1016.9 |
| 20260508110202 | 15 | 144 | 1.6 | 6.4 | 0.00 | 0.00 | 0.00 | 63 | 1016.8 |
| 20260508110005 | 16 | 180 | 3.2 | 6.4 | 0.00 | 0.00 | 0.00 | 63 | 1016.8 |
| 20260508105804 | 16 | 153 | 1.6 | 11.3 | 0.00 | 0.00 | 0.00 | 64 | 1016.9 |
| 20260508105602 | 15 | 143 | 1.6 | 11.3 | 0.00 | 0.00 | 0.00 | 64 | 1016.9 |
| 20260508105404 | 15 | 124 | 0.0 | 11.3 | 0.00 | 0.00 | 0.00 | 64 | 1016.8 |
| 20260508105202 | 15 | 94 | 4.8 | 11.3 | 0.00 | 0.00 | 0.00 | 64 | 1016.8 |
| 20260508105005 | 15 | 148 | 4.8 | 9.7 | 0.00 | 0.00 | 0.00 | 62 | 1016.8 |
| 20260508104802 | 15 | 106 | 3.2 | 9.7 | 0.00 | 0.00 | 0.00 | 61 | 1016.8 |
| 20260508104603 | 15 | 158 | 3.2 | 9.7 | 0.00 | 0.00 | 0.00 | 61 | 1016.8 |
| 20260508104402 | 15 | 143 | 4.8 | 9.7 | 0.00 | 0.00 | 0.00 | 61 | 1016.8 |
| 20260508104203 | 15 | 155 | 0.0 | 8.0 | 0.00 | 0.00 | 0.00 | 62 | 1016.8 |
| 20260508104003 | 15 | 141 | 1.6 | 8.0 | 0.00 | 0.00 | 0.00 | 61 | 1016.9 |
| 20260508103804 | 15 | 104 | 1.6 | 8.0 | 0.00 | 0.00 | 0.00 | 61 | 1016.8 |
| 20260508103602 | 15 | 119 | 1.6 | 6.4 | 0.00 | 0.00 | 0.00 | 62 | 1016.9 |
| 20260508103402 | 15 | 150 | 1.6 | 6.4 | 0.00 | 0.00 | 0.00 | 64 | 1016.8 |
| 20260508103202 | 15 | 80 | 1.6 | 6.4 | 0.00 | 0.00 | 0.00 | 63 | 1016.8 |
| 20260508103003 | 15 | 140 | 1.6 | 9.7 | 0.00 | 0.00 | 0.00 | 65 | 1016.9 |
| 20260508102802 | 15 | 104 | 0.0 | 9.7 | 0.00 | 0.00 | 0.00 | 65 | 1016.8 |
| 20260508102603 | 15 | 147 | 1.6 | 9.7 | 0.00 | 0.00 | 0.00 | 67 | 1016.9 |
| 20260508102402 | 15 | 99 | 3.2 | 9.7 | 0.00 | 0.00 | 0.00 | 68 | 1017.0 |
| 20260508102004 | 14 | 134 | 1.6 | 8.0 | 0.00 | 0.00 | 0.00 | 70 | 1016.9 |
| 20260508101802 | 14 | 151 | 1.6 | 8.0 | 0.00 | 0.00 | 0.00 | 72 | 1016.9 |
| 20260508101202 | 13 | 155 | 1.6 | 8.0 | 0.00 | 0.00 | 0.00 | 73 | 1017.0 |
| 20260508101004 | 13 | 157 | 1.6 | 8.0 | 0.00 | 0.00 | 0.00 | 74 | 1017.0 |
| 20260508100804 | 13 | 226 | 0.0 | 8.0 | 0.00 | 0.00 | 0.00 | 74 | 1016.9 |
| 20260508100404 | 13 | 167 | 4.8 | 8.0 | 0.00 | 0.00 | 0.00 | 74 | 1017.1 |
| 20260508100203 | 13 | 232 | 1.6 | 4.8 | 0.00 | 0.00 | 0.00 | 76 | 1017.0 |
| 20260508100007 | 13 | 248 | 1.6 | 4.8 | 0.00 | 0.00 | 0.00 | 76 | 1017.0 |
| 20260508095603 | 13 | 229 | 3.2 | 6.4 | 0.00 | 0.00 | 0.00 | 77 | 1017.0 |
| 20260508095403 | 13 | 147 | 3.2 | 6.4 | 0.00 | 0.00 | 0.00 | 77 | 1017.0 |
| 20260508095203 | 12 | 215 | 3.2 | 6.4 | 0.00 | 0.00 | 0.00 | 76 | 1017.0 |
| 20260508095004 | 12 | 117 | 1.6 | 4.8 | 0.00 | 0.00 | 0.00 | 77 | 1017.0 |
| 20260508094802 | 12 | 168 | 0.0 | 4.8 | 0.00 | 0.00 | 0.00 | 78 | 1017.0 |
| 20260508094603 | 12 | 172 | 0.0 | 4.8 | 0.00 | 0.00 | 0.00 | 78 | 1017.0 |
| 20260508094403 | 12 | 122 | 0.0 | 6.4 | 0.00 | 0.00 | 0.00 | 78 | 1017.0 |
| 20260508094203 | 12 | 132 | 0.0 | 6.4 | 0.00 | 0.00 | 0.00 | 78 | 1017.0 |
| 20260508094004 | 12 | 107 | 1.6 | 6.4 | 0.00 | 0.00 | 0.00 | 77 | 1017.0 |
| 20260508093803 | 12 | 158 | 3.2 | 6.4 | 0.00 | 0.00 | 0.00 | 77 | 1016.9 |
| 20260508093602 | 12 | 146 | 0.0 | 6.4 | 0.00 | 0.00 | 0.00 | 77 | 1016.9 |
| 20260508093405 | 12 | 157 | 0.0 | 6.4 | 0.00 | 0.00 | 0.00 | 77 | 1016.9 |
| 20260508093203 | 12 | 151 | 1.6 | 6.4 | 0.00 | 0.00 | 0.00 | 77 | 1016.9 |
| 20260508092804 | 12 | 148 | 0.0 | 3.2 | 0.00 | 0.00 | 0.00 | 77 | 1017.0 |
| 20260508092603 | 12 | 248 | 1.6 | 3.2 | 0.00 | 0.00 | 0.00 | 76 | 1016.8 |
| 20260508092402 | 12 | 169 | 1.6 | 3.2 | 0.00 | 0.00 | 0.00 | 76 | 1016.9 |
| 20260508092004 | 12 | 144 | 1.6 | 4.8 | 0.00 | 0.00 | 0.00 | 77 | 1016.9 |
| 20260508091803 | 12 | 131 | 0.0 | 4.8 | 0.00 | 0.00 | 0.00 | 76 | 1016.9 |
| 20260508091602 | 12 | 131 | 1.6 | 4.8 | 0.00 | 0.00 | 0.00 | 77 | 1016.8 |
| 20260508091402 | 12 | 120 | 0.0 | 4.8 | 0.00 | 0.00 | 0.00 | 76 | 1016.8 |
| 20260508091004 | 12 | 211 | 1.6 | 3.2 | 0.00 | 0.00 | 0.00 | 76 | 1016.8 |
| 20260508090804 | 12 | 156 | 0.0 | 3.2 | 0.00 | 0.00 | 0.00 | 76 | 1016.9 |
| 20260508090602 | 12 | 143 | 0.0 | 6.4 | 0.00 | 0.00 | 0.00 | 76 | 1016.8 |
| 20260508090404 | 12 | 149 | 0.0 | 6.4 | 0.00 | 0.00 | 0.00 | 76 | 1016.8 |
| 20260508090203 | 12 | 198 | 0.0 | 6.4 | 0.00 | 0.00 | 0.00 | 76 | 1016.8 |
| 20260508090010 | 12 | 155 | 1.6 | 6.4 | 0.00 | 0.00 | 0.00 | 76 | 1016.7 |
| 20260508085802 | 12 | 199 | 1.6 | 6.4 | 0.00 | 0.00 | 0.00 | 76 | 1016.9 |
| 20260508085202 | 12 | 112 | 1.6 | 6.4 | 0.00 | 0.00 | 0.00 | 76 | 1016.7 |
| 20260508085003 | 12 | 128 | 3.2 | 6.4 | 0.00 | 0.00 | 0.00 | 76 | 1016.8 |
| 20260508084803 | 12 | 202 | 0.0 | 3.2 | 0.00 | 0.00 | 0.00 | 76 | 1016.8 |
| 20260508084603 | 12 | 176 | 0.0 | 3.2 | 0.00 | 0.00 | 0.00 | 76 | 1016.7 |
| 20260508084403 | 12 | 143 | 0.0 | 6.4 | 0.00 | 0.00 | 0.00 | 76 | 1016.7 |
| 20260508084203 | 12 | 166 | 0.0 | 8.0 | 0.00 | 0.00 | 0.00 | 76 | 1016.7 |
| 20260508083604 | 12 | 144 | 4.8 | 8.0 | 0.00 | 0.00 | 0.00 | 75 | 1016.7 |
| 20260508083403 | 12 | 146 | 1.6 | 8.0 | 0.00 | 0.00 | 0.00 | 76 | 1016.8 |
| 20260508083204 | 12 | 156 | 3.2 | 6.4 | 0.00 | 0.00 | 0.00 | 76 | 1016.7 |
| 20260508083003 | 12 | 219 | 3.2 | 8.0 | 0.00 | 0.00 | 0.00 | 75 | 1016.7 |
| 20260508082804 | 12 | 314 | 1.6 | 8.0 | 0.00 | 0.00 | 0.00 | 75 | 1016.8 |
| 20260508082603 | 12 | 198 | 3.2 | 8.0 | 0.00 | 0.00 | 0.00 | 75 | 1016.7 |
| 20260508082404 | 12 | 158 | 3.2 | 8.0 | 0.00 | 0.00 | 0.00 | 74 | 1016.7 |
| 20260508082005 | 12 | 156 | 1.6 | 4.8 | 0.00 | 0.00 | 0.00 | 75 | 1016.7 |
| 20260508081604 | 12 | 270 | 0.0 | 3.2 | 0.00 | 0.00 | 0.00 | 76 | 1016.7 |
| 20260508081402 | 12 | 60 | 0.0 | 3.2 | 0.00 | 0.00 | 0.00 | 77 | 1016.7 |
| 20260508081204 | 12 | 126 | 0.0 | 3.2 | 0.00 | 0.00 | 0.00 | 77 | 1016.7 |
| 20260508081003 | 12 | 163 | 0.0 | 3.2 | 0.00 | 0.00 | 0.00 | 77 | 1016.8 |
| 20260508080203 | 11 | 111 | 0.0 | 3.2 | 0.00 | 0.00 | 0.00 | 77 | 1016.7 |
| 20260508080006 | 11 | 110 | 0.0 | 3.2 | 0.00 | 0.00 | 0.00 | 78 | 1016.7 |
| 20260508075801 | 11 | 134 | 1.6 | 4.8 | 0.00 | 0.00 | 0.00 | 78 | 1016.7 |
| 20260508075602 | 11 | 146 | 0.0 | 4.8 | 0.00 | 0.00 | 0.00 | 79 | 1016.6 |
| 20260508075402 | 11 | 147 | 0.0 | 4.8 | 0.00 | 0.00 | 0.00 | 79 | 1016.7 |
| 20260508075201 | 11 | 100 | 1.6 | 4.8 | 0.00 | 0.00 | 0.00 | 79 | 1016.6 |
| 20260508075003 | 11 | 164 | 1.6 | 4.8 | 0.00 | 0.00 | 0.00 | 79 | 1016.6 |
| 20260508074802 | 11 | 169 | 0.0 | 4.8 | 0.00 | 0.00 | 0.00 | 80 | 1016.6 |
| 20260508074602 | 11 | 110 | 0.0 | 4.8 | 0.00 | 0.00 | 0.00 | 79 | 1016.6 |
| 20260508074401 | 11 | 163 | 1.6 | 4.8 | 0.00 | 0.00 | 0.00 | 79 | 1016.5 |
| 20260508074202 | 11 | 158 | 1.6 | 4.8 | 0.00 | 0.00 | 0.00 | 79 | 1016.6 |
| 20260508074002 | 11 | 165 | 0.0 | 1.6 | 0.00 | 0.00 | 0.00 | 80 | 1016.6 |
| 20260508073803 | 11 | 104 | 0.0 | 1.6 | 0.00 | 0.00 | 0.00 | 80 | 1016.6 |
| 20260508073601 | 11 | 140 | 0.0 | 1.6 | 0.00 | 0.00 | 0.00 | 80 | 1016.6 |
| 20260508073401 | 11 | 90 | 0.0 | 1.6 | 0.00 | 0.00 | 0.00 | 80 | 1016.6 |
| 20260508073201 | 11 | 90 | 0.0 | 1.6 | 0.00 | 0.00 | 0.00 | 80 | 1016.6 |
| 20260508073002 | 11 | 210 | 0.0 | 1.6 | 0.00 | 0.00 | 0.00 | 80 | 1016.6 |
| 20260508072601 | 10 | 151 | 0.0 | 3.2 | 0.00 | 0.00 | 0.00 | 80 | 1016.6 |
| 20260508072402 | 10 | 133 | 0.0 | 6.4 | 0.00 | 0.00 | 0.00 | 81 | 1016.5 |
| 20260508072202 | 10 | 133 | 0.0 | 6.4 | 0.00 | 0.00 | 0.00 | 81 | 1016.5 |
| 20260508072005 | 10 | 132 | 0.0 | 6.4 | 0.00 | 0.00 | 0.00 | 80 | 1016.5 |
| 20260508071404 | 10 | 52 | 1.6 | 6.4 | 0.00 | 0.00 | 0.00 | 80 | 1016.5 |
| 20260508071202 | 10 | 122 | 1.6 | 6.4 | 0.00 | 0.00 | 0.00 | 81 | 1016.5 |
| 20260508070804 | 10 | 143 | 0.0 | 4.8 | 0.00 | 0.00 | 0.00 | 81 | 1016.5 |
| 20260508070602 | 10 | 110 | 1.6 | 4.8 | 0.00 | 0.00 | 0.00 | 81 | 1016.5 |
| 20260508070403 | 10 | 170 | 1.6 | 4.8 | 0.00 | 0.00 | 0.00 | 81 | 1016.5 |
| 20260508070201 | 10 | 136 | 0.0 | 3.2 | 0.00 | 0.00 | 0.00 | 81 | 1016.5 |
| 20260508070007 | 10 | 130 | 0.0 | 3.2 | 0.00 | 0.00 | 0.00 | 82 | 1016.4 |
| 20260508065802 | 10 | 133 | 0.0 | 1.6 | 0.00 | 0.00 | 0.00 | 82 | 1016.3 |
| 20260508065603 | 10 | 133 | 0.0 | 1.6 | 0.00 | 0.00 | 0.00 | 83 | 1016.3 |
| 20260508065402 | 10 | 104 | 0.0 | 3.2 | 0.00 | 0.00 | 0.00 | 83 | 1016.2 |
| 20260508065203 | 10 | 103 | 0.0 | 4.8 | 0.00 | 0.00 | 0.00 | 83 | 1016.3 |
| 20260508065003 | 10 | 103 | 0.0 | 4.8 | 0.00 | 0.00 | 0.00 | 83 | 1016.2 |
| 20260508064804 | 10 | 55 | 0.0 | 4.8 | 0.00 | 0.00 | 0.00 | 83 | 1016.2 |
| 20260508064403 | 10 | 87 | 0.0 | 4.8 | 0.00 | 0.00 | 0.00 | 83 | 1016.2 |
| 20260508064201 | 10 | 136 | 0.0 | 1.6 | 0.00 | 0.00 | 0.00 | 84 | 1016.2 |
| 20260508064004 | 10 | 155 | 0.0 | 1.6 | 0.00 | 0.00 | 0.00 | 85 | 1016.1 |
| 20260508063802 | 9 | 89 | 0.0 | 1.6 | 0.00 | 0.00 | 0.00 | 85 | 1016.1 |
| 20260508063604 | 9 | 86 | 0.0 | 3.2 | 0.00 | 0.00 | 0.00 | 85 | 1016.0 |
| 20260508063203 | 9 | 86 | 0.0 | 3.2 | 0.00 | 0.00 | 0.00 | 85 | 1016.0 |
| 20260508063002 | 9 | 86 | 0.0 | 3.2 | 0.00 | 0.00 | 0.00 | 85 | 1016.0 |
| 20260508062602 | 9 | 85 | 0.0 | 3.2 | 0.00 | 0.00 | 0.00 | 86 | 1016.0 |
| 20260508062403 | 8 | 59 | 0.0 | 1.6 | 0.00 | 0.00 | 0.00 | 86 | 1016.1 |
| 20260508062203 | 8 | 76 | 0.0 | 1.6 | 0.00 | 0.00 | 0.00 | 86 | 1016.1 |
| 20260508062004 | 8 | 76 | 0.0 | 3.2 | 0.00 | 0.00 | 0.00 | 86 | 1016.1 |
| 20260508061802 | 8 | 75 | 0.0 | 3.2 | 0.00 | 0.00 | 0.00 | 87 | 1016.0 |
| 20260508061603 | 8 | 88 | 0.0 | 3.2 | 0.00 | 0.00 | 0.00 | 87 | 1016.0 |
| 20260508061402 | 8 | 89 | 0.0 | 3.2 | 0.00 | 0.00 | 0.00 | 87 | 1015.9 |
| 20260508061203 | 8 | 35 | 0.0 | 1.6 | 0.00 | 0.00 | 0.00 | 87 | 1015.9 |
| 20260508061003 | 8 | 87 | 0.0 | 3.2 | 0.00 | 0.00 | 0.00 | 88 | 1015.8 |
| 20260508060803 | 8 | 87 | 0.0 | 3.2 | 0.00 | 0.00 | 0.00 | 88 | 1015.9 |
| 20260508060601 | 8 | 87 | 0.0 | 3.2 | 0.00 | 0.00 | 0.00 | 88 | 1015.8 |
| 20260508060403 | 8 | 87 | 0.0 | 3.2 | 0.00 | 0.00 | 0.00 | 88 | 1015.9 |
| 20260508060008 | 8 | 75 | 0.0 | 0.0 | 0.00 | 0.00 | 0.00 | 88 | 1015.9 |
| 20260508055802 | 8 | 87 | 0.0 | 1.6 | 0.00 | 0.00 | 0.00 | 88 | 1015.8 |
| 20260508055401 | 8 | 87 | 0.0 | 3.2 | 0.00 | 0.00 | 0.00 | 89 | 1015.8 |
| 20260508055203 | 7 | 87 | 0.0 | 3.2 | 0.00 | 0.00 | 0.00 | 89 | 1015.8 |
| 20260508055003 | 7 | 86 | 0.0 | 3.2 | 0.00 | 0.00 | 0.00 | 89 | 1015.7 |
| 20260508054803 | 7 | 87 | 0.0 | 3.2 | 0.00 | 0.00 | 0.00 | 89 | 1015.8 |
| 20260508054602 | 7 | 94 | 0.0 | 3.2 | 0.00 | 0.00 | 0.00 | 89 | 1015.7 |
| 20260508054403 | 7 | 91 | 0.0 | 3.2 | 0.00 | 0.00 | 0.00 | 89 | 1015.7 |
| 20260508054202 | 7 | 104 | 0.0 | 1.6 | 0.00 | 0.00 | 0.00 | 89 | 1015.6 |
| 20260508054004 | 7 | 117 | 0.0 | 1.6 | 0.00 | 0.00 | 0.00 | 89 | 1015.7 |
| 20260508053801 | 7 | 106 | 0.0 | 1.6 | 0.00 | 0.00 | 0.00 | 90 | 1015.7 |
| 20260508053603 | 7 | 132 | 0.0 | 0.0 | 0.00 | 0.00 | 0.00 | 90 | 1015.7 |
| 20260508053401 | 7 | 142 | 0.0 | 0.0 | 0.00 | 0.00 | 0.00 | 90 | 1015.6 |
| 20260508053203 | 7 | 142 | 0.0 | 0.0 | 0.00 | 0.00 | 0.00 | 90 | 1015.7 |
| 20260508053003 | 7 | 142 | 0.0 | 0.0 | 0.00 | 0.00 | 0.00 | 90 | 1015.7 |
| 20260508052804 | 7 | 141 | 0.0 | 0.0 | 0.00 | 0.00 | 0.00 | 90 | 1015.6 |
| 20260508052601 | 7 | 142 | 0.0 | 0.0 | 0.00 | 0.00 | 0.00 | 90 | 1015.6 |
| 20260508052403 | 7 | 142 | 0.0 | 0.0 | 0.00 | 0.00 | 0.00 | 90 | 1015.6 |
| 20260508052202 | 7 | 142 | 0.0 | 0.0 | 0.00 | 0.00 | 0.00 | 89 | 1015.6 |
| 20260508052002 | 7 | 142 | 0.0 | 0.0 | 0.00 | 0.00 | 0.00 | 89 | 1015.6 |
| 20260508051602 | 7 | 142 | 0.0 | 0.0 | 0.00 | 0.00 | 0.00 | 89 | 1015.5 |
| 20260508051402 | 7 | 142 | 0.0 | 0.0 | 0.00 | 0.00 | 0.00 | 89 | 1015.5 |
| 20260508051202 | 7 | 144 | 0.0 | 0.0 | 0.00 | 0.00 | 0.00 | 89 | 1015.5 |
| 20260508051003 | 7 | 144 | 0.0 | 0.0 | 0.00 | 0.00 | 0.00 | 89 | 1015.4 |
| 20260508050802 | 7 | 144 | 0.0 | 0.0 | 0.00 | 0.00 | 0.00 | 89 | 1015.5 |
| 20260508050602 | 7 | 144 | 0.0 | 0.0 | 0.00 | 0.00 | 0.00 | 89 | 1015.5 |
| 20260508050402 | 7 | 144 | 0.0 | 0.0 | 0.00 | 0.00 | 0.00 | 89 | 1015.5 |
| 20260508050202 | 7 | 144 | 0.0 | 0.0 | 0.00 | 0.00 | 0.00 | 89 | 1015.5 |
| 20260508045802 | 7 | 144 | 0.0 | 1.6 | 0.00 | 0.00 | 0.00 | 89 | 1015.5 |
| 20260508045602 | 7 | 144 | 0.0 | 1.6 | 0.00 | 0.00 | 0.00 | 89 | 1015.5 |
| 20260508045202 | 7 | 144 | 0.0 | 1.6 | 0.00 | 0.00 | 0.00 | 88 | 1015.4 |
| 20260508045003 | 7 | 144 | 0.0 | 1.6 | 0.00 | 0.00 | 0.00 | 88 | 1015.4 |
| 20260508044802 | 7 | 144 | 0.0 | 1.6 | 0.00 | 0.00 | 0.00 | 88 | 1015.4 |
| 20260508044602 | 7 | 81 | 0.0 | 1.6 | 0.00 | 0.00 | 0.00 | 88 | 1015.3 |
| 20260508044402 | 7 | 60 | 0.0 | 1.6 | 0.00 | 0.00 | 0.00 | 88 | 1015.3 |
| 20260508044003 | 8 | 61 | 0.0 | 1.6 | 0.00 | 0.00 | 0.00 | 88 | 1015.3 |
| 20260508043802 | 8 | 279 | 0.0 | 3.2 | 0.00 | 0.00 | 0.00 | 88 | 1015.3 |
| 20260508043602 | 8 | 87 | 0.0 | 3.2 | 0.00 | 0.00 | 0.00 | 88 | 1015.4 |
| 20260508043402 | 8 | 83 | 0.0 | 3.2 | 0.00 | 0.00 | 0.00 | 88 | 1015.3 |
| 20260508043202 | 8 | 82 | 0.0 | 3.2 | 0.00 | 0.00 | 0.00 | 88 | 1015.4 |
| 20260508043003 | 8 | 89 | 0.0 | 3.2 | 0.00 | 0.00 | 0.00 | 88 | 1015.3 |
| 20260508042802 | 8 | 88 | 0.0 | 1.6 | 0.00 | 0.00 | 0.00 | 88 | 1015.4 |
| 20260508042602 | 8 | 88 | 0.0 | 1.6 | 0.00 | 0.00 | 0.00 | 88 | 1015.3 |
| 20260508042402 | 8 | 89 | 0.0 | 1.6 | 0.00 | 0.00 | 0.00 | 88 | 1015.3 |
| 20260508042202 | 8 | 89 | 0.0 | 1.6 | 0.00 | 0.00 | 0.00 | 88 | 1015.3 |
| 20260508042005 | 8 | 89 | 0.0 | 1.6 | 0.00 | 0.00 | 0.00 | 88 | 1015.4 |
| 20260508041802 | 8 | 89 | 0.0 | 1.6 | 0.00 | 0.00 | 0.00 | 88 | 1015.4 |
| 20260508041402 | 8 | 89 | 0.0 | 1.6 | 0.00 | 0.00 | 0.00 | 88 | 1015.3 |
| 20260508041204 | 8 | 89 | 0.0 | 1.6 | 0.00 | 0.00 | 0.00 | 88 | 1015.3 |
| 20260508040803 | 8 | 88 | 0.0 | 3.2 | 0.00 | 0.00 | 0.00 | 88 | 1015.4 |
| 20260508040602 | 8 | 104 | 0.0 | 3.2 | 0.00 | 0.00 | 0.00 | 88 | 1015.4 |
| 20260508040403 | 8 | 98 | 0.0 | 3.2 | 0.00 | 0.00 | 0.00 | 88 | 1015.3 |
| 20260508040202 | 8 | 85 | 0.0 | 3.2 | 0.00 | 0.00 | 0.00 | 88 | 1015.3 |
| 20260508040006 | 8 | 70 | 0.0 | 1.6 | 0.00 | 0.00 | 0.00 | 88 | 1015.3 |
| 20260508035802 | 8 | 70 | 0.0 | 1.6 | 0.00 | 0.00 | 0.00 | 88 | 1015.2 |
| 20260508035602 | 8 | 69 | 0.0 | 1.6 | 0.00 | 0.00 | 0.00 | 88 | 1015.3 |
| 20260508035202 | 8 | 68 | 0.0 | 1.6 | 0.00 | 0.00 | 0.00 | 88 | 1015.4 |
| 20260508035003 | 8 | 68 | 0.0 | 1.6 | 0.00 | 0.00 | 0.00 | 88 | 1015.3 |
| 20260508034802 | 8 | 76 | 0.0 | 1.6 | 0.00 | 0.00 | 0.00 | 88 | 1015.4 |
| 20260508034602 | 8 | 79 | 0.0 | 1.6 | 0.00 | 0.00 | 0.00 | 89 | 1015.3 |
| 20260508034402 | 8 | 79 | 0.0 | 1.6 | 0.00 | 0.00 | 0.00 | 89 | 1015.3 |
| 20260508033802 | 7 | 79 | 0.0 | 0.0 | 0.00 | 0.00 | 0.00 | 89 | 1015.2 |
| 20260508033602 | 7 | 78 | 0.0 | 0.0 | 0.00 | 0.00 | 0.00 | 89 | 1015.2 |
| 20260508033401 | 7 | 80 | 0.0 | 0.0 | 0.00 | 0.00 | 0.00 | 89 | 1015.2 |
| 20260508033202 | 7 | 80 | 0.0 | 0.0 | 0.00 | 0.00 | 0.00 | 89 | 1015.3 |
| 20260508033003 | 7 | 80 | 0.0 | 0.0 | 0.00 | 0.00 | 0.00 | 89 | 1015.3 |
| 20260508032802 | 7 | 80 | 0.0 | 1.6 | 0.00 | 0.00 | 0.00 | 89 | 1015.2 |
| 20260508032402 | 7 | 80 | 0.0 | 1.6 | 0.00 | 0.00 | 0.00 | 89 | 1015.3 |
| 20260508032205 | 7 | 80 | 0.0 | 1.6 | 0.00 | 0.00 | 0.00 | 89 | 1015.3 |
| 20260508032003 | 7 | 80 | 0.0 | 1.6 | 0.00 | 0.00 | 0.00 | 89 | 1015.3 |
| 20260508031804 | 7 | 80 | 0.0 | 1.6 | 0.00 | 0.00 | 0.00 | 89 | 1015.2 |
| 20260508031602 | 7 | 80 | 0.0 | 1.6 | 0.00 | 0.00 | 0.00 | 89 | 1015.2 |
| 20260508031202 | 7 | 82 | 0.0 | 0.0 | 0.00 | 0.00 | 0.00 | 89 | 1015.3 |
| 20260508030802 | 7 | 82 | 0.0 | 0.0 | 0.00 | 0.00 | 0.00 | 89 | 1015.2 |
| 20260508030402 | 7 | 82 | 0.0 | 0.0 | 0.00 | 0.00 | 0.00 | 89 | 1015.2 |
| 20260508030203 | 7 | 82 | 0.0 | 1.6 | 0.00 | 0.00 | 0.00 | 88 | 1015.2 |
| 20260508030006 | 7 | 82 | 0.0 | 1.6 | 0.00 | 0.00 | 0.00 | 88 | 1015.1 |
| 20260508025601 | 7 | 82 | 0.0 | 1.6 | 0.00 | 0.00 | 0.00 | 89 | 1015.1 |
| 20260508025002 | 7 | 86 | 0.0 | 0.0 | 0.00 | 0.00 | 0.00 | 88 | 1015.1 |
| 20260508024800 | 7 | 86 | 0.0 | 0.0 | 0.00 | 0.00 | 0.00 | 88 | 1015.0 |
| 20260508024600 | 7 | 86 | 0.0 | 0.0 | 0.00 | 0.00 | 0.00 | 88 | 1015.2 |
| 20260508024401 | 7 | 86 | 0.0 | 0.0 | 0.00 | 0.00 | 0.00 | 88 | 1015.1 |
| 20260508024201 | 7 | 86 | 0.0 | 0.0 | 0.00 | 0.00 | 0.00 | 88 | 1015.0 |
| 20260508024001 | 7 | 86 | 0.0 | 0.0 | 0.00 | 0.00 | 0.00 | 88 | 1015.0 |
| 20260508023601 | 8 | 86 | 0.0 | 0.0 | 0.00 | 0.00 | 0.00 | 88 | 1015.2 |
| 20260508023401 | 8 | 86 | 0.0 | 0.0 | 0.00 | 0.00 | 0.00 | 88 | 1015.1 |
| 20260508023201 | 8 | 86 | 0.0 | 0.0 | 0.00 | 0.00 | 0.00 | 88 | 1015.1 |
| 20260508023001 | 8 | 86 | 0.0 | 0.0 | 0.00 | 0.00 | 0.00 | 88 | 1015.2 |
| 20260508022801 | 8 | 86 | 0.0 | 0.0 | 0.00 | 0.00 | 0.00 | 88 | 1015.2 |
| 20260508022401 | 8 | 110 | 0.0 | 0.0 | 0.00 | 0.00 | 0.00 | 88 | 1015.2 |
| 20260508022201 | 8 | 124 | 0.0 | 0.0 | 0.00 | 0.00 | 0.00 | 88 | 1015.1 |
| 20260508022001 | 8 | 124 | 0.0 | 0.0 | 0.00 | 0.00 | 0.00 | 88 | 1015.2 |
| 20260508021801 | 8 | 124 | 0.0 | 0.0 | 0.00 | 0.00 | 0.00 | 88 | 1015.3 |
| 20260508021600 | 8 | 124 | 0.0 | 0.0 | 0.00 | 0.00 | 0.00 | 88 | 1015.2 |
| 20260508021402 | 8 | 124 | 0.0 | 0.0 | 0.00 | 0.00 | 0.00 | 88 | 1015.2 |
| 20260508021202 | 8 | 124 | 0.0 | 0.0 | 0.00 | 0.00 | 0.00 | 88 | 1015.2 |
| 20260508021003 | 8 | 124 | 0.0 | 0.0 | 0.00 | 0.00 | 0.00 | 88 | 1015.3 |
| 20260508020801 | 8 | 124 | 0.0 | 0.0 | 0.00 | 0.00 | 0.00 | 88 | 1015.1 |
| 20260508020401 | 8 | 124 | 0.0 | 0.0 | 0.00 | 0.00 | 0.00 | 87 | 1015.2 |
| 20260508020204 | 8 | 123 | 0.0 | 0.0 | 0.00 | 0.00 | 0.00 | 87 | 1015.2 |
| 20260508020004 | 8 | 124 | 0.0 | 0.0 | 0.00 | 0.00 | 0.00 | 87 | 1015.2 |
| 20260508015801 | 8 | 124 | 0.0 | 0.0 | 0.00 | 0.00 | 0.00 | 87 | 1015.2 |
| 20260508015400 | 8 | 124 | 0.0 | 0.0 | 0.00 | 0.00 | 0.00 | 87 | 1015.2 |
| 20260508015201 | 8 | 124 | 0.0 | 0.0 | 0.00 | 0.00 | 0.00 | 87 | 1015.2 |
| 20260508015002 | 8 | 124 | 0.0 | 0.0 | 0.00 | 0.00 | 0.00 | 87 | 1015.0 |
| 20260508014801 | 8 | 124 | 0.0 | 0.0 | 0.00 | 0.00 | 0.00 | 87 | 1015.1 |
| 20260508014601 | 8 | 124 | 0.0 | 0.0 | 0.00 | 0.00 | 0.00 | 87 | 1015.2 |
| 20260508014400 | 8 | 124 | 0.0 | 0.0 | 0.00 | 0.00 | 0.00 | 87 | 1015.1 |
| 20260508014200 | 8 | 124 | 0.0 | 0.0 | 0.00 | 0.00 | 0.00 | 86 | 1015.1 |
| 20260508014002 | 8 | 123 | 0.0 | 0.0 | 0.00 | 0.00 | 0.00 | 86 | 1015.2 |
| 20260508013801 | 8 | 124 | 0.0 | 0.0 | 0.00 | 0.00 | 0.00 | 86 | 1015.1 |
| 20260508013601 | 8 | 124 | 0.0 | 0.0 | 0.00 | 0.00 | 0.00 | 86 | 1015.2 |
| 20260508013401 | 8 | 124 | 0.0 | 0.0 | 0.00 | 0.00 | 0.00 | 86 | 1015.2 |
| 20260508013002 | 8 | 105 | 0.0 | 0.0 | 0.00 | 0.00 | 0.00 | 86 | 1015.0 |
| 20260508012800 | 8 | 105 | 0.0 | 0.0 | 0.00 | 0.00 | 0.00 | 86 | 1015.1 |
| 20260508012601 | 8 | 105 | 0.0 | 0.0 | 0.00 | 0.00 | 0.00 | 85 | 1015.1 |
| 20260508012201 | 8 | 105 | 0.0 | 0.0 | 0.00 | 0.00 | 0.00 | 85 | 1015.1 |
| 20260508012004 | 8 | 105 | 0.0 | 0.0 | 0.00 | 0.00 | 0.00 | 85 | 1015.0 |
| 20260508011602 | 8 | 105 | 0.0 | 0.0 | 0.00 | 0.00 | 0.00 | 85 | 1015.0 |
| 20260508011401 | 8 | 106 | 0.0 | 0.0 | 0.00 | 0.00 | 0.00 | 85 | 1015.0 |
| 20260508011202 | 8 | 122 | 0.0 | 0.0 | 0.00 | 0.00 | 0.00 | 85 | 1015.0 |
| 20260508011002 | 8 | 131 | 0.0 | 0.0 | 0.00 | 0.00 | 0.00 | 85 | 1015.0 |
| 20260508010802 | 8 | 131 | 0.0 | 0.0 | 0.00 | 0.00 | 0.00 | 85 | 1015.1 |
| 20260508010600 | 8 | 131 | 0.0 | 0.0 | 0.00 | 0.00 | 0.00 | 85 | 1015.0 |
| 20260508010402 | 9 | 131 | 0.0 | 0.0 | 0.00 | 0.00 | 0.00 | 85 | 1015.0 |
| 20260508010202 | 9 | 131 | 0.0 | 0.0 | 0.00 | 0.00 | 0.00 | 85 | 1015.1 |
| 20260508010006 | 9 | 131 | 0.0 | 0.0 | 0.00 | 0.00 | 0.00 | 85 | 1015.1 |
| 20260508005801 | 9 | 131 | 0.0 | 0.0 | 0.00 | 0.00 | 0.00 | 85 | 1015.1 |
| 20260508005601 | 9 | 71 | 0.0 | 0.0 | 0.00 | 0.00 | 0.00 | 85 | 1015.1 |
| 20260508005401 | 9 | 70 | 0.0 | 0.0 | 0.00 | 0.00 | 0.00 | 85 | 1015.0 |
| 20260508005201 | 9 | 70 | 0.0 | 0.0 | 0.00 | 0.00 | 0.00 | 85 | 1015.0 |
| 20260508004600 | 9 | 71 | 0.0 | 0.0 | 0.00 | 0.00 | 0.00 | 85 | 1015.2 |
| 20260508004401 | 9 | 71 | 0.0 | 0.0 | 0.00 | 0.00 | 0.00 | 85 | 1015.1 |
| 20260508004201 | 9 | 71 | 0.0 | 0.0 | 0.00 | 0.00 | 0.00 | 85 | 1015.2 |
| 20260508003801 | 9 | 71 | 0.0 | 0.0 | 0.00 | 0.00 | 0.00 | 85 | 1015.2 |
| 20260508003400 | 8 | 62 | 0.0 | 0.0 | 0.00 | 0.00 | 0.00 | 85 | 1015.2 |
| 20260508003200 | 8 | 62 | 0.0 | 0.0 | 0.00 | 0.00 | 0.00 | 85 | 1015.3 |
| 20260508003001 | 8 | 62 | 0.0 | 0.0 | 0.00 | 0.00 | 0.00 | 85 | 1015.2 |
| 20260508002801 | 8 | 62 | 0.0 | 0.0 | 0.00 | 0.00 | 0.00 | 85 | 1015.2 |
| 20260508002401 | 8 | 62 | 0.0 | 0.0 | 0.00 | 0.00 | 0.00 | 85 | 1015.3 |
| 20260508002204 | 8 | 62 | 0.0 | 0.0 | 0.00 | 0.00 | 0.00 | 85 | 1015.2 |
| 20260508002001 | 8 | 62 | 0.0 | 0.0 | 0.00 | 0.00 | 0.00 | 85 | 1015.3 |
| 20260508001800 | 8 | 62 | 0.0 | 0.0 | 0.00 | 0.00 | 0.00 | 85 | 1015.2 |
| 20260508001400 | 8 | 62 | 0.0 | 0.0 | 0.00 | 0.00 | 0.00 | 84 | 1015.3 |
| 20260508001200 | 9 | 62 | 0.0 | 0.0 | 0.00 | 0.00 | 0.00 | 84 | 1015.3 |
| 20260508000801 | 9 | 62 | 0.0 | 0.0 | 0.00 | 0.00 | 0.00 | 84 | 1015.3 |
| 20260508000601 | 9 | 62 | 0.0 | 0.0 | 0.00 | 0.00 | 0.00 | 84 | 1015.3 |
| 20260508000400 | 9 | 60 | 0.0 | 0.0 | 0.00 | 0.00 | 0.00 | 84 | 1015.3 |
| 20260508000204 | 9 | 60 | 0.0 | 0.0 | 0.00 | 0.00 | 0.00 | 84 | 1015.3 |
| 20260508000004 | 9 | 60 | 0.0 | 0.0 | 0.00 | 0.00 | 0.00 | 84 | 1015.2 |
| 20260507235801 | 9 | 60 | 0.0 | 0.0 | 0.00 | 0.00 | 0.00 | 84 | 1015.2 |
| 20260507235600 | 9 | 61 | 0.0 | 0.0 | 0.00 | 0.00 | 0.00 | 84 | 1015.3 |
| 20260507235400 | 9 | 94 | 0.0 | 0.0 | 0.00 | 0.00 | 0.00 | 84 | 1015.2 |
| 20260507235201 | 9 | 119 | 0.0 | 0.0 | 0.00 | 0.00 | 0.00 | 84 | 1015.3 |
| 20260507235001 | 8 | 119 | 0.0 | 0.0 | 0.00 | 0.00 | 0.00 | 84 | 1015.3 |
| 20260507234800 | 8 | 119 | 0.0 | 0.0 | 0.00 | 0.00 | 0.00 | 84 | 1015.3 |
| 20260507234601 | 8 | 119 | 0.0 | 0.0 | 0.00 | 0.00 | 0.00 | 84 | 1015.2 |
| 20260507234400 | 8 | 119 | 0.0 | 0.0 | 0.00 | 0.00 | 0.00 | 85 | 1015.3 |
| 20260507234001 | 8 | 119 | 0.0 | 0.0 | 0.00 | 0.00 | 0.00 | 85 | 1015.2 |
| 20260507233400 | 8 | 119 | 0.0 | 0.0 | 0.00 | 0.00 | 0.00 | 85 | 1015.2 |
| 20260507233200 | 8 | 119 | 0.0 | 0.0 | 0.00 | 0.00 | 0.00 | 85 | 1015.3 |
| 20260507233002 | 8 | 119 | 0.0 | 0.0 | 0.00 | 0.00 | 0.00 | 85 | 1015.3 |
| 20260507232602 | 8 | 119 | 0.0 | 0.0 | 0.00 | 0.00 | 0.00 | 85 | 1015.3 |
| 20260507232400 | 8 | 119 | 0.0 | 0.0 | 0.00 | 0.00 | 0.00 | 85 | 1015.3 |
| 20260507232200 | 8 | 119 | 0.0 | 0.0 | 0.00 | 0.00 | 0.00 | 84 | 1015.3 |
| 20260507232001 | 8 | 119 | 0.0 | 0.0 | 0.00 | 0.00 | 0.00 | 84 | 1015.3 |
| 20260507231801 | 8 | 119 | 0.0 | 0.0 | 0.00 | 0.00 | 0.00 | 84 | 1015.4 |
| 20260507231600 | 8 | 119 | 0.0 | 0.0 | 0.00 | 0.00 | 0.00 | 84 | 1015.4 |
| 20260507231402 | 8 | 119 | 0.0 | 0.0 | 0.00 | 0.00 | 0.00 | 84 | 1015.3 |
| 20260507231200 | 8 | 119 | 0.0 | 0.0 | 0.00 | 0.00 | 0.00 | 84 | 1015.3 |
| 20260507231001 | 8 | 119 | 0.0 | 0.0 | 0.00 | 0.00 | 0.00 | 84 | 1015.3 |
| 20260507230801 | 8 | 119 | 0.0 | 0.0 | 0.00 | 0.00 | 0.00 | 84 | 1015.3 |
| 20260507230400 | 8 | 119 | 0.0 | 0.0 | 0.00 | 0.00 | 0.00 | 83 | 1015.2 |
| 20260507230204 | 8 | 119 | 0.0 | 0.0 | 0.00 | 0.00 | 0.00 | 83 | 1015.3 |
| 20260507230008 | 8 | 119 | 0.0 | 0.0 | 0.00 | 0.00 | 0.00 | 83 | 1015.2 |
| 20260507225805 | 9 | 119 | 0.0 | 0.0 | 0.00 | 0.00 | 0.00 | 82 | 1015.2 |
| 20260507225405 | 9 | 119 | 0.0 | 0.0 | 0.00 | 0.00 | 0.00 | 82 | 1015.2 |
| 20260507225204 | 9 | 119 | 0.0 | 0.0 | 0.00 | 0.00 | 0.00 | 82 | 1015.2 |
| 20260507225006 | 9 | 119 | 0.0 | 0.0 | 0.00 | 0.00 | 0.00 | 82 | 1015.2 |
| 20260507224605 | 9 | 119 | 0.0 | 0.0 | 0.00 | 0.00 | 0.00 | 82 | 1015.1 |
| 20260507224404 | 9 | 119 | 0.0 | 0.0 | 0.00 | 0.00 | 0.00 | 82 | 1015.1 |
| 20260507224205 | 9 | 119 | 0.0 | 0.0 | 0.00 | 0.00 | 0.00 | 81 | 1015.1 |
| 20260507224004 | 9 | 119 | 0.0 | 0.0 | 0.00 | 0.00 | 0.00 | 81 | 1015.1 |
| 20260507223806 | 10 | 119 | 0.0 | 0.0 | 0.00 | 0.00 | 0.00 | 81 | 1015.1 |
| 20260507223603 | 10 | 119 | 0.0 | 0.0 | 0.00 | 0.00 | 0.00 | 81 | 1015.2 |
| 20260507223403 | 10 | 119 | 0.0 | 0.0 | 0.00 | 0.00 | 0.00 | 81 | 1015.2 |
| 20260507223204 | 10 | 119 | 0.0 | 0.0 | 0.00 | 0.00 | 0.00 | 81 | 1015.2 |
| 20260507222803 | 10 | 119 | 0.0 | 0.0 | 0.00 | 0.00 | 0.00 | 81 | 1015.1 |
| 20260507222603 | 10 | 119 | 0.0 | 0.0 | 0.00 | 0.00 | 0.00 | 80 | 1015.1 |
| 20260507222403 | 10 | 119 | 0.0 | 0.0 | 0.00 | 0.00 | 0.00 | 80 | 1015.1 |
| 20260507222203 | 10 | 119 | 0.0 | 0.0 | 0.00 | 0.00 | 0.00 | 80 | 1015.1 |
| 20260507222004 | 10 | 119 | 0.0 | 0.0 | 0.00 | 0.00 | 0.00 | 80 | 1015.0 |
| 20260507221803 | 10 | 119 | 0.0 | 0.0 | 0.00 | 0.00 | 0.00 | 80 | 1015.0 |
| 20260507221403 | 10 | 119 | 0.0 | 0.0 | 0.00 | 0.00 | 0.00 | 80 | 1015.0 |
| 20260507221204 | 10 | 119 | 0.0 | 0.0 | 0.00 | 0.00 | 0.00 | 79 | 1015.0 |
| 20260507220804 | 10 | 119 | 0.0 | 0.0 | 0.00 | 0.00 | 0.00 | 79 | 1015.0 |
| 20260507220603 | 10 | 119 | 0.0 | 0.0 | 0.00 | 0.00 | 0.00 | 79 | 1014.9 |
| 20260507220403 | 10 | 119 | 0.0 | 0.0 | 0.00 | 0.00 | 0.00 | 79 | 1015.0 |
| 20260507220203 | 10 | 119 | 0.0 | 0.0 | 0.00 | 0.00 | 0.00 | 78 | 1015.0 |
| 20260507220009 | 10 | 119 | 0.0 | 0.0 | 0.00 | 0.00 | 0.00 | 78 | 1014.9 |
| 20260507215604 | 10 | 119 | 0.0 | 0.0 | 0.00 | 0.00 | 0.00 | 78 | 1015.0 |
| 20260507215405 | 11 | 119 | 0.0 | 0.0 | 0.00 | 0.00 | 0.00 | 78 | 1014.9 |
| 20260507215203 | 11 | 119 | 0.0 | 0.0 | 0.00 | 0.00 | 0.00 | 78 | 1015.0 |
| 20260507215006 | 11 | 119 | 0.0 | 0.0 | 0.00 | 0.00 | 0.00 | 78 | 1015.0 |
| 20260507214804 | 11 | 119 | 0.0 | 0.0 | 0.00 | 0.00 | 0.00 | 78 | 1014.9 |
| 20260507214403 | 11 | 119 | 0.0 | 0.0 | 0.00 | 0.00 | 0.00 | 77 | 1015.0 |
| 20260507214203 | 11 | 119 | 0.0 | 0.0 | 0.00 | 0.00 | 0.00 | 77 | 1015.0 |
| 20260507214004 | 11 | 119 | 0.0 | 0.0 | 0.00 | 0.00 | 0.00 | 77 | 1015.0 |
| 20260507213803 | 11 | 119 | 0.0 | 0.0 | 0.00 | 0.00 | 0.00 | 77 | 1015.0 |
| 20260507213603 | 11 | 119 | 0.0 | 0.0 | 0.00 | 0.00 | 0.00 | 77 | 1015.0 |
| 20260507213403 | 11 | 119 | 0.0 | 0.0 | 0.00 | 0.00 | 0.00 | 77 | 1015.0 |
| 20260507213204 | 11 | 119 | 0.0 | 0.0 | 0.00 | 0.00 | 0.00 | 77 | 1015.0 |
| 20260507213004 | 11 | 119 | 0.0 | 0.0 | 0.00 | 0.00 | 0.00 | 77 | 1015.0 |
| 20260507212805 | 11 | 119 | 0.0 | 0.0 | 0.00 | 0.00 | 0.00 | 77 | 1015.0 |
| 20260507212603 | 11 | 148 | 0.0 | 1.6 | 0.00 | 0.00 | 0.00 | 77 | 1015.0 |
| 20260507212405 | 11 | 148 | 0.0 | 1.6 | 0.00 | 0.00 | 0.00 | 77 | 1015.0 |
| 20260507212204 | 11 | 148 | 0.0 | 1.6 | 0.00 | 0.00 | 0.00 | 77 | 1015.0 |
| 20260507211803 | 11 | 146 | 0.0 | 3.2 | 0.00 | 0.00 | 0.00 | 77 | 1015.0 |
| 20260507211606 | 11 | 165 | 1.6 | 3.2 | 0.00 | 0.00 | 0.00 | 77 | 1014.9 |
| 20260507211203 | 11 | 165 | 1.6 | 3.2 | 0.00 | 0.00 | 0.00 | 77 | 1015.0 |
| 20260507211004 | 11 | 148 | 0.0 | 3.2 | 0.00 | 0.00 | 0.00 | 77 | 1015.0 |
| 20260507210803 | 11 | 147 | 0.0 | 3.2 | 0.00 | 0.00 | 0.00 | 77 | 1014.9 |
| 20260507210603 | 11 | 189 | 0.0 | 0.0 | 0.00 | 0.00 | 0.00 | 78 | 1015.0 |
| 20260507210404 | 11 | 214 | 0.0 | 0.0 | 0.00 | 0.00 | 0.00 | 78 | 1014.9 |
| 20260507210203 | 11 | 221 | 0.0 | 0.0 | 0.00 | 0.00 | 0.00 | 78 | 1014.9 |
| 20260507210007 | 11 | 222 | 0.0 | 0.0 | 0.00 | 0.00 | 0.00 | 78 | 1014.9 |
| 20260507205805 | 11 | 140 | 0.0 | 0.0 | 0.00 | 0.00 | 0.00 | 78 | 1014.8 |
| 20260507205604 | 11 | 139 | 0.0 | 0.0 | 0.00 | 0.00 | 0.00 | 78 | 1014.9 |
| 20260507205404 | 11 | 140 | 0.0 | 0.0 | 0.00 | 0.00 | 0.00 | 78 | 1014.8 |
| 20260507205203 | 11 | 140 | 0.0 | 0.0 | 0.00 | 0.00 | 0.00 | 78 | 1014.8 |
| 20260507205006 | 11 | 140 | 0.0 | 0.0 | 0.00 | 0.00 | 0.00 | 78 | 1014.7 |
| 20260507204803 | 11 | 140 | 0.0 | 0.0 | 0.00 | 0.00 | 0.00 | 78 | 1014.6 |
| 20260507204605 | 11 | 140 | 0.0 | 0.0 | 0.00 | 0.00 | 0.00 | 78 | 1014.7 |
| 20260507204205 | 11 | 140 | 0.0 | 0.0 | 0.00 | 0.00 | 0.00 | 78 | 1014.6 |
| 20260507204004 | 11 | 143 | 0.0 | 0.0 | 0.00 | 0.00 | 0.00 | 78 | 1014.6 |
| 20260507203804 | 11 | 143 | 0.0 | 0.0 | 0.00 | 0.00 | 0.00 | 78 | 1014.6 |
| 20260507203605 | 11 | 144 | 0.0 | 0.0 | 0.00 | 0.00 | 0.00 | 78 | 1014.6 |
| 20260507203403 | 11 | 143 | 0.0 | 0.0 | 0.00 | 0.00 | 0.00 | 78 | 1014.6 |
| 20260507203205 | 11 | 143 | 0.0 | 0.0 | 0.00 | 0.00 | 0.00 | 78 | 1014.6 |
| 20260507203005 | 11 | 143 | 0.0 | 0.0 | 0.00 | 0.00 | 0.00 | 78 | 1014.6 |
| 20260507202806 | 11 | 143 | 0.0 | 0.0 | 0.00 | 0.00 | 0.00 | 78 | 1014.5 |
| 20260507202603 | 11 | 143 | 0.0 | 0.0 | 0.00 | 0.00 | 0.00 | 78 | 1014.5 |
| 20260507202204 | 11 | 143 | 0.0 | 0.0 | 0.00 | 0.00 | 0.00 | 78 | 1014.5 |
| 20260507202007 | 11 | 145 | 0.0 | 0.0 | 0.00 | 0.00 | 0.00 | 78 | 1014.5 |
| 20260507201804 | 11 | 145 | 0.0 | 1.6 | 0.00 | 0.00 | 0.00 | 78 | 1014.5 |
| 20260507201605 | 11 | 145 | 0.0 | 1.6 | 0.00 | 0.00 | 0.00 | 78 | 1014.5 |
| 20260507201404 | 11 | 132 | 0.0 | 1.6 | 0.00 | 0.00 | 0.00 | 77 | 1014.5 |
| 20260507201206 | 11 | 129 | 0.0 | 1.6 | 0.00 | 0.00 | 0.00 | 77 | 1014.5 |
| 20260507201005 | 11 | 129 | 1.6 | 1.6 | 0.00 | 0.00 | 0.00 | 77 | 1014.5 |
| 20260507200805 | 11 | 150 | 0.0 | 0.0 | 0.00 | 0.00 | 0.00 | 77 | 1014.4 |
| 20260507200406 | 11 | 150 | 0.0 | 3.2 | 0.00 | 0.00 | 0.00 | 77 | 1014.4 |
| 20260507200204 | 11 | 150 | 0.0 | 3.2 | 0.00 | 0.00 | 0.00 | 77 | 1014.4 |
| 20260507200009 | 11 | 150 | 0.0 | 3.2 | 0.00 | 0.00 | 0.00 | 77 | 1014.4 |
| 20260507195803 | 11 | 150 | 0.0 | 3.2 | 0.00 | 0.00 | 0.00 | 77 | 1014.3 |
| 20260507195604 | 11 | 148 | 1.6 | 4.8 | 0.00 | 0.00 | 0.00 | 77 | 1014.3 |
| 20260507195204 | 11 | 143 | 0.0 | 4.8 | 0.00 | 0.00 | 0.00 | 76 | 1014.3 |
| 20260507195005 | 11 | 143 | 1.6 | 4.8 | 0.00 | 0.00 | 0.00 | 76 | 1014.4 |
| 20260507194803 | 11 | 98 | 0.0 | 3.2 | 0.00 | 0.00 | 0.00 | 76 | 1014.4 |
| 20260507194604 | 11 | 157 | 1.6 | 3.2 | 0.00 | 0.00 | 0.00 | 76 | 1014.3 |
| 20260507194404 | 11 | 198 | 0.0 | 3.2 | 0.00 | 0.00 | 0.00 | 76 | 1014.3 |
| 20260507194204 | 11 | 183 | 1.6 | 3.2 | 0.00 | 0.00 | 0.00 | 76 | 1014.3 |
| 20260507194006 | 11 | 147 | 1.6 | 4.8 | 0.00 | 0.00 | 0.00 | 76 | 1014.3 |
| 20260507193805 | 11 | 141 | 0.0 | 4.8 | 0.00 | 0.00 | 0.00 | 76 | 1014.3 |
| 20260507193605 | 11 | 150 | 0.0 | 4.8 | 0.00 | 0.00 | 0.00 | 76 | 1014.3 |
| 20260507193404 | 11 | 187 | 1.6 | 4.8 | 0.00 | 0.00 | 0.00 | 76 | 1014.3 |
| 20260507193205 | 11 | 153 | 0.0 | 8.0 | 0.00 | 0.00 | 0.00 | 77 | 1014.2 |
| 20260507193004 | 11 | 154 | 1.6 | 8.0 | 0.00 | 0.00 | 0.00 | 77 | 1014.2 |
| 20260507192805 | 11 | 191 | 1.6 | 8.0 | 0.00 | 0.00 | 0.00 | 77 | 1014.2 |
| 20260507192604 | 11 | 212 | 0.0 | 8.0 | 0.00 | 0.00 | 0.00 | 77 | 1014.2 |
| 20260507192405 | 11 | 86 | 1.6 | 8.0 | 0.00 | 0.00 | 0.00 | 76 | 1014.3 |
| 20260507192204 | 11 | 278 | 0.0 | 3.2 | 0.00 | 0.00 | 0.00 | 76 | 1014.4 |
| 20260507192006 | 11 | 231 | 1.6 | 3.2 | 0.00 | 0.00 | 0.00 | 75 | 1014.4 |
| 20260507191803 | 11 | 209 | 1.6 | 3.2 | 0.00 | 0.00 | 0.00 | 75 | 1014.4 |
| 20260507191605 | 12 | 213 | 0.0 | 3.2 | 0.00 | 0.00 | 0.00 | 75 | 1014.3 |
| 20260507191404 | 12 | 220 | 0.0 | 3.2 | 0.00 | 0.00 | 0.00 | 74 | 1014.3 |
| 20260507191205 | 12 | 227 | 1.6 | 6.4 | 0.00 | 0.00 | 0.00 | 74 | 1014.3 |
| 20260507190805 | 12 | 250 | 1.6 | 6.4 | 0.00 | 0.00 | 0.00 | 74 | 1014.2 |
| 20260507190604 | 12 | 240 | 1.6 | 6.4 | 0.00 | 0.00 | 0.00 | 73 | 1014.2 |
| 20260507190405 | 12 | 250 | 1.6 | 4.8 | 0.00 | 0.00 | 0.00 | 73 | 1014.2 |
| 20260507190204 | 12 | 262 | 1.6 | 4.8 | 0.00 | 0.00 | 0.00 | 73 | 1014.1 |
| 20260507190010 | 12 | 256 | 0.0 | 3.2 | 0.00 | 0.00 | 0.00 | 73 | 1014.1 |
| 20260507185804 | 12 | 231 | 0.0 | 3.2 | 0.00 | 0.00 | 0.00 | 72 | 1014.0 |
| 20260507185604 | 12 | 162 | 0.0 | 3.2 | 0.00 | 0.00 | 0.00 | 72 | 1014.0 |
| 20260507185403 | 12 | 208 | 0.0 | 4.8 | 0.00 | 0.00 | 0.00 | 72 | 1014.1 |
| 20260507185203 | 12 | 218 | 0.0 | 4.8 | 0.00 | 0.00 | 0.00 | 72 | 1014.0 |
| 20260507185004 | 12 | 18 | 0.0 | 4.8 | 0.00 | 0.00 | 0.00 | 72 | 1014.0 |
| 20260507184604 | 12 | 262 | 0.0 | 4.8 | 0.00 | 0.00 | 0.00 | 71 | 1014.0 |
| 20260507184404 | 12 | 255 | 3.2 | 4.8 | 0.00 | 0.00 | 0.00 | 70 | 1014.0 |
| 20260507184204 | 12 | 254 | 1.6 | 4.8 | 0.00 | 0.00 | 0.00 | 69 | 1014.0 |
| 20260507184004 | 12 | 275 | 1.6 | 4.8 | 0.00 | 0.00 | 0.00 | 68 | 1013.9 |
| 20260507183804 | 13 | 268 | 0.0 | 4.8 | 0.00 | 0.00 | 0.00 | 67 | 1014.0 |
| 20260507183604 | 13 | 259 | 0.0 | 6.4 | 0.00 | 0.00 | 0.00 | 66 | 1013.9 |
| 20260507183407 | 13 | 283 | 0.0 | 6.4 | 0.00 | 0.00 | 0.00 | 65 | 1013.8 |
| 20260507183203 | 13 | 95 | 1.6 | 6.4 | 0.00 | 0.00 | 0.00 | 65 | 1014.0 |
| 20260507183006 | 13 | 212 | 0.0 | 9.7 | 0.00 | 0.00 | 0.00 | 63 | 1013.8 |
| 20260507182804 | 13 | 248 | 3.2 | 9.7 | 0.00 | 0.00 | 0.00 | 62 | 1013.9 |
| 20260507182404 | 13 | 167 | 3.2 | 9.7 | 0.00 | 0.00 | 0.00 | 61 | 1013.8 |
| 20260507182206 | 13 | 148 | 0.0 | 6.4 | 0.00 | 0.00 | 0.00 | 61 | 1013.8 |
| 20260507182005 | 13 | 153 | 3.2 | 8.0 | 0.00 | 0.00 | 0.00 | 61 | 1013.9 |
| 20260507181603 | 13 | 166 | 1.6 | 8.0 | 0.00 | 0.00 | 0.00 | 60 | 1013.7 |
| 20260507181405 | 13 | 153 | 4.8 | 8.0 | 0.00 | 0.00 | 0.00 | 60 | 1013.7 |
| 20260507181203 | 13 | 137 | 3.2 | 8.0 | 0.00 | 0.00 | 0.00 | 60 | 1013.7 |
| 20260507181006 | 13 | 240 | 1.6 | 6.4 | 0.00 | 0.00 | 0.00 | 60 | 1013.7 |
| 20260507180605 | 13 | 207 | 1.6 | 6.4 | 0.00 | 0.00 | 0.00 | 60 | 1013.7 |
| 20260507180403 | 13 | 153 | 1.6 | 6.4 | 0.00 | 0.00 | 0.00 | 60 | 1013.7 |
| 20260507180206 | 13 | 160 | 3.2 | 6.4 | 0.00 | 0.00 | 0.00 | 60 | 1013.7 |
| 20260507180006 | 13 | 160 | 3.2 | 6.4 | 0.00 | 0.00 | 0.00 | 59 | 1013.7 |
| 20260507175602 | 13 | 141 | 1.6 | 8.0 | 0.00 | 0.00 | 0.00 | 59 | 1013.8 |
| 20260507175403 | 13 | 134 | 1.6 | 11.3 | 0.00 | 0.00 | 0.00 | 59 | 1013.7 |
| 20260507175202 | 13 | 143 | 3.2 | 11.3 | 0.00 | 0.00 | 0.00 | 59 | 1013.7 |
| 20260507175003 | 13 | 199 | 3.2 | 11.3 | 0.00 | 0.00 | 0.00 | 59 | 1013.6 |
| 20260507174602 | 13 | 191 | 3.2 | 8.0 | 0.00 | 0.00 | 0.00 | 59 | 1013.8 |
| 20260507174202 | 13 | 173 | 3.2 | 11.3 | 0.00 | 0.00 | 0.00 | 58 | 1013.7 |
| 20260507173803 | 13 | 174 | 3.2 | 12.9 | 0.00 | 0.00 | 0.00 | 58 | 1013.7 |
| 20260507173605 | 13 | 248 | 6.4 | 12.9 | 0.00 | 0.00 | 0.00 | 58 | 1013.7 |
| 20260507173403 | 13 | 143 | 4.8 | 12.9 | 0.00 | 0.00 | 0.00 | 58 | 1013.7 |
| 20260507173204 | 13 | 199 | 8.0 | 12.9 | 0.00 | 0.00 | 0.00 | 57 | 1013.7 |
| 20260507173004 | 13 | 169 | 6.4 | 17.7 | 0.00 | 0.00 | 0.00 | 57 | 1013.7 |
| 20260507172805 | 13 | 158 | 6.4 | 17.7 | 0.00 | 0.00 | 0.00 | 57 | 1013.7 |
| 20260507172602 | 13 | 127 | 4.8 | 17.7 | 0.00 | 0.00 | 0.00 | 56 | 1013.7 |
| 20260507172404 | 13 | 219 | 8.0 | 17.7 | 0.00 | 0.00 | 0.00 | 56 | 1013.7 |
| 20260507172202 | 13 | 185 | 6.4 | 16.1 | 0.00 | 0.00 | 0.00 | 56 | 1013.6 |
| 20260507172005 | 13 | 172 | 9.7 | 16.1 | 0.00 | 0.00 | 0.00 | 56 | 1013.6 |
| 20260507171803 | 14 | 129 | 9.7 | 16.1 | 0.00 | 0.00 | 0.00 | 56 | 1013.6 |
| 20260507171604 | 14 | 153 | 8.0 | 16.1 | 0.00 | 0.00 | 0.00 | 56 | 1013.6 |
| 20260507171403 | 14 | 150 | 4.8 | 11.3 | 0.00 | 0.00 | 0.00 | 56 | 1013.6 |
| 20260507171204 | 14 | 175 | 3.2 | 9.7 | 0.00 | 0.00 | 0.00 | 56 | 1013.7 |
| 20260507171003 | 14 | 161 | 4.8 | 11.3 | 0.00 | 0.00 | 0.00 | 56 | 1013.6 |
| 20260507170804 | 14 | 158 | 3.2 | 17.7 | 0.00 | 0.00 | 0.00 | 56 | 1013.6 |
| 20260507170602 | 14 | 152 | 4.8 | 20.9 | 0.00 | 0.00 | 0.00 | 56 | 1013.6 |
| 20260507170404 | 14 | 162 | 4.8 | 20.9 | 0.00 | 0.00 | 0.00 | 55 | 1013.6 |
| 20260507170203 | 14 | 139 | 8.0 | 20.9 | 0.00 | 0.00 | 0.00 | 55 | 1013.6 |
| 20260507170009 | 14 | 159 | 11.3 | 20.9 | 0.00 | 0.00 | 0.00 | 54 | 1013.7 |
| 20260507165802 | 14 | 172 | 6.4 | 17.7 | 0.00 | 0.00 | 0.00 | 54 | 1013.7 |
| 20260507165403 | 14 | 226 | 8.0 | 17.7 | 0.00 | 0.00 | 0.00 | 53 | 1013.6 |
| 20260507165202 | 14 | 128 | 4.8 | 14.5 | 0.00 | 0.00 | 0.00 | 54 | 1013.7 |
| 20260507165003 | 14 | 152 | 3.2 | 14.5 | 0.00 | 0.00 | 0.00 | 53 | 1013.7 |
| 20260507164803 | 14 | 164 | 6.4 | 14.5 | 0.00 | 0.00 | 0.00 | 53 | 1013.7 |
| 20260507164602 | 14 | 155 | 4.8 | 14.5 | 0.00 | 0.00 | 0.00 | 53 | 1013.6 |
| 20260507164402 | 14 | 223 | 6.4 | 14.5 | 0.00 | 0.00 | 0.00 | 54 | 1013.6 |
| 20260507164203 | 14 | 160 | 8.0 | 14.5 | 0.00 | 0.00 | 0.00 | 53 | 1013.7 |
| 20260507164005 | 14 | 162 | 8.0 | 14.5 | 0.00 | 0.00 | 0.00 | 53 | 1013.7 |
| 20260507163804 | 14 | 154 | 3.2 | 11.3 | 0.00 | 0.00 | 0.00 | 54 | 1013.7 |
| 20260507163604 | 14 | 181 | 4.8 | 11.3 | 0.00 | 0.00 | 0.00 | 53 | 1013.6 |
| 20260507163403 | 14 | 125 | 3.2 | 11.3 | 0.00 | 0.00 | 0.00 | 53 | 1013.7 |
| 20260507163204 | 14 | 165 | 3.2 | 11.3 | 0.00 | 0.00 | 0.00 | 54 | 1013.6 |
| 20260507163003 | 14 | 121 | 3.2 | 12.9 | 0.00 | 0.00 | 0.00 | 54 | 1013.7 |
| 20260507162804 | 14 | 200 | 3.2 | 12.9 | 0.00 | 0.00 | 0.00 | 54 | 1013.7 |
| 20260507162404 | 14 | 191 | 4.8 | 12.9 | 0.00 | 0.00 | 0.00 | 54 | 1013.7 |
| 20260507162005 | 14 | 127 | 6.4 | 12.9 | 0.00 | 0.00 | 0.00 | 54 | 1013.7 |
| 20260507161803 | 14 | 148 | 4.8 | 12.9 | 0.00 | 0.00 | 0.00 | 55 | 1013.7 |
| 20260507161604 | 14 | 172 | 4.8 | 16.1 | 0.00 | 0.00 | 0.00 | 55 | 1013.8 |
| 20260507161403 | 14 | 169 | 6.4 | 16.1 | 0.00 | 0.00 | 0.00 | 55 | 1013.8 |
| 20260507161204 | 13 | 98 | 6.4 | 16.1 | 0.00 | 0.00 | 0.00 | 55 | 1013.8 |
| 20260507161004 | 13 | 203 | 6.4 | 16.1 | 0.00 | 0.00 | 0.00 | 56 | 1013.7 |
| 20260507160804 | 13 | 138 | 4.8 | 9.7 | 0.00 | 0.00 | 0.00 | 56 | 1013.8 |
| 20260507160602 | 13 | 174 | 4.8 | 9.7 | 0.00 | 0.00 | 0.00 | 56 | 1013.7 |
| 20260507160404 | 13 | 148 | 4.8 | 9.7 | 0.00 | 0.00 | 0.00 | 55 | 1013.8 |
| 20260507160203 | 13 | 151 | 6.4 | 9.7 | 0.00 | 0.00 | 0.00 | 55 | 1013.8 |
| 20260507160008 | 13 | 165 | 3.2 | 9.7 | 0.00 | 0.00 | 0.00 | 55 | 1013.8 |
| 20260507155604 | 13 | 99 | 3.2 | 12.9 | 0.00 | 0.00 | 0.00 | 55 | 1013.8 |
| 20260507155402 | 13 | 123 | 3.2 | 12.9 | 0.00 | 0.00 | 0.00 | 55 | 1013.8 |
| 20260507155204 | 14 | 144 | 6.4 | 12.9 | 0.00 | 0.00 | 0.00 | 54 | 1013.8 |
| 20260507154804 | 14 | 179 | 3.2 | 11.3 | 0.00 | 0.00 | 0.00 | 54 | 1013.8 |
| 20260507154603 | 14 | 244 | 4.8 | 11.3 | 0.00 | 0.00 | 0.00 | 54 | 1013.8 |
| 20260507154405 | 14 | 146 | 6.4 | 12.9 | 0.00 | 0.00 | 0.00 | 54 | 1013.8 |
| 20260507153603 | 14 | 181 | 4.8 | 14.5 | 0.00 | 0.00 | 0.00 | 54 | 1013.9 |
| 20260507153404 | 14 | 161 | 8.0 | 14.5 | 0.00 | 0.00 | 0.00 | 54 | 1013.9 |
| 20260507153203 | 14 | 150 | 6.4 | 17.7 | 0.00 | 0.00 | 0.00 | 54 | 1014.0 |
| 20260507152802 | 14 | 148 | 4.8 | 17.7 | 0.00 | 0.00 | 0.00 | 55 | 1013.9 |
| 20260507152603 | 14 | 175 | 6.4 | 17.7 | 0.00 | 0.00 | 0.00 | 55 | 1013.9 |
| 20260507152402 | 15 | 155 | 9.7 | 17.7 | 0.00 | 0.00 | 0.00 | 56 | 1013.9 |
| 20260507152202 | 15 | 148 | 6.4 | 16.1 | 0.00 | 0.00 | 0.00 | 56 | 1013.9 |
| 20260507152003 | 15 | 174 | 3.2 | 12.9 | 0.00 | 0.00 | 0.00 | 57 | 1013.9 |
| 20260507151803 | 15 | 188 | 4.8 | 12.9 | 0.00 | 0.00 | 0.00 | 56 | 1013.9 |
| 20260507151402 | 15 | 177 | 4.8 | 11.3 | 0.00 | 0.00 | 0.00 | 56 | 1013.9 |
| 20260507151202 | 15 | 155 | 6.4 | 11.3 | 0.00 | 0.00 | 0.00 | 56 | 1014.0 |
| 20260507151003 | 15 | 96 | 1.6 | 16.1 | 0.00 | 0.00 | 0.00 | 56 | 1013.9 |
| 20260507150602 | 15 | 141 | 6.4 | 16.1 | 0.00 | 0.00 | 0.00 | 56 | 1013.9 |
| 20260507150203 | 15 | 143 | 8.0 | 16.1 | 0.00 | 0.00 | 0.00 | 56 | 1013.9 |
| 20260507150007 | 15 | 155 | 4.8 | 12.9 | 0.00 | 0.00 | 0.00 | 56 | 1014.0 |
| 20260507145804 | 15 | 142 | 6.4 | 14.5 | 0.00 | 0.00 | 0.00 | 56 | 1014.0 |
| 20260507145602 | 15 | 176 | 8.0 | 14.5 | 0.00 | 0.00 | 0.00 | 56 | 1014.0 |
| 20260507145405 | 15 | 112 | 6.4 | 14.5 | 0.00 | 0.00 | 0.00 | 55 | 1014.0 |
| 20260507145202 | 15 | 149 | 6.4 | 14.5 | 0.00 | 0.00 | 0.00 | 55 | 1014.0 |
| 20260507145003 | 15 | 198 | 6.4 | 14.5 | 0.00 | 0.00 | 0.00 | 55 | 1013.9 |
| 20260507144802 | 15 | 167 | 8.0 | 14.5 | 0.00 | 0.00 | 0.00 | 54 | 1014.0 |
| 20260507144602 | 15 | 206 | 4.8 | 14.5 | 0.00 | 0.00 | 0.00 | 54 | 1014.0 |
| 20260507144403 | 15 | 154 | 6.4 | 14.5 | 0.00 | 0.00 | 0.00 | 54 | 1014.0 |
| 20260507144202 | 15 | 178 | 8.0 | 14.5 | 0.00 | 0.00 | 0.00 | 54 | 1014.1 |
| 20260507144004 | 15 | 150 | 8.0 | 12.9 | 0.00 | 0.00 | 0.00 | 54 | 1014.0 |
| 20260507143802 | 15 | 218 | 6.4 | 12.9 | 0.00 | 0.00 | 0.00 | 55 | 1014.1 |
| 20260507143605 | 15 | 134 | 6.4 | 12.9 | 0.00 | 0.00 | 0.00 | 55 | 1014.2 |
| 20260507143404 | 15 | 205 | 6.4 | 11.3 | 0.00 | 0.00 | 0.00 | 56 | 1014.2 |
| 20260507143202 | 15 | 133 | 3.2 | 11.3 | 0.00 | 0.00 | 0.00 | 56 | 1014.2 |
| 20260507143005 | 15 | 209 | 3.2 | 11.3 | 0.00 | 0.00 | 0.00 | 57 | 1014.2 |
| 20260507142802 | 14 | 169 | 3.2 | 12.9 | 0.00 | 0.00 | 0.00 | 56 | 1014.2 |
| 20260507142602 | 15 | 142 | 6.4 | 12.9 | 0.00 | 0.00 | 0.00 | 56 | 1014.4 |
| 20260507142403 | 15 | 176 | 6.4 | 12.9 | 0.00 | 0.00 | 0.00 | 55 | 1014.3 |
| 20260507142202 | 15 | 138 | 6.4 | 12.9 | 0.00 | 0.00 | 0.00 | 54 | 1014.4 |
| 20260507142003 | 15 | 148 | 6.4 | 12.9 | 0.00 | 0.00 | 0.00 | 54 | 1014.5 |
| 20260507141802 | 15 | 217 | 6.4 | 12.9 | 0.00 | 0.00 | 0.00 | 55 | 1014.5 |
| 20260507141602 | 15 | 158 | 3.2 | 12.9 | 0.00 | 0.00 | 0.00 | 59 | 1014.3 |
| 20260507141402 | 14 | 190 | 6.4 | 12.9 | 0.00 | 0.00 | 0.00 | 59 | 1014.5 |
| 20260507141202 | 14 | 174 | 3.2 | 14.5 | 0.00 | 0.00 | 0.00 | 58 | 1014.5 |
| 20260507141003 | 14 | 132 | 6.4 | 14.5 | 0.00 | 0.00 | 0.00 | 58 | 1014.5 |
| 20260507140802 | 15 | 174 | 6.4 | 14.5 | 0.00 | 0.00 | 0.00 | 57 | 1014.6 |
| 20260507140603 | 15 | 143 | 4.8 | 14.5 | 0.00 | 0.00 | 0.00 | 57 | 1014.7 |
| 20260507140403 | 14 | 171 | 6.4 | 14.5 | 0.00 | 0.00 | 0.00 | 57 | 1014.6 |
| 20260507140202 | 15 | 150 | 6.4 | 12.9 | 0.00 | 0.00 | 0.00 | 56 | 1014.7 |
| 20260507135803 | 15 | 165 | 6.4 | 12.9 | 0.00 | 0.00 | 0.00 | 58 | 1014.6 |
| 20260507135603 | 14 | 181 | 3.2 | 14.5 | 0.00 | 0.00 | 0.00 | 58 | 1014.7 |
| 20260507135202 | 14 | 172 | 6.4 | 14.5 | 0.00 | 0.00 | 0.00 | 58 | 1014.7 |
| 20260507135003 | 14 | 153 | 8.0 | 14.5 | 0.00 | 0.00 | 0.00 | 57 | 1014.8 |
| 20260507134602 | 14 | 122 | 4.8 | 14.5 | 0.00 | 0.00 | 0.00 | 58 | 1014.7 |
| 20260507134402 | 14 | 160 | 4.8 | 14.5 | 0.00 | 0.00 | 0.00 | 59 | 1014.7 |
| 20260507134203 | 14 | 119 | 6.4 | 14.5 | 0.00 | 0.00 | 0.00 | 58 | 1014.8 |
| 20260507133803 | 14 | 162 | 8.0 | 14.5 | 0.00 | 0.00 | 0.00 | 58 | 1014.8 |
| 20260507133403 | 14 | 172 | 4.8 | 12.9 | 0.00 | 0.00 | 0.00 | 59 | 1014.8 |
| 20260507133203 | 14 | 155 | 4.8 | 12.9 | 0.00 | 0.00 | 0.00 | 58 | 1014.9 |
| 20260507133005 | 14 | 148 | 6.4 | 12.9 | 0.00 | 0.00 | 0.00 | 59 | 1014.9 |
| 20260507132802 | 14 | 137 | 3.2 | 12.9 | 0.00 | 0.00 | 0.00 | 60 | 1015.0 |
| 20260507132604 | 14 | 153 | 6.4 | 12.9 | 0.00 | 0.00 | 0.00 | 59 | 1015.0 |
| 20260507132402 | 14 | 136 | 6.4 | 12.9 | 0.00 | 0.00 | 0.00 | 59 | 1014.9 |
| 20260507132003 | 14 | 276 | 4.8 | 11.3 | 0.00 | 0.00 | 0.00 | 59 | 1014.9 |
| 20260507131803 | 14 | 155 | 6.4 | 14.5 | 0.00 | 0.00 | 0.00 | 60 | 1015.0 |
| 20260507131602 | 14 | 152 | 3.2 | 14.5 | 0.00 | 0.00 | 0.00 | 60 | 1014.9 |
| 20260507131403 | 13 | 154 | 6.4 | 14.5 | 0.00 | 0.00 | 0.00 | 60 | 1014.9 |
| 20260507131202 | 13 | 167 | 3.2 | 14.5 | 0.00 | 0.00 | 0.00 | 59 | 1015.0 |
| 20260507131004 | 13 | 232 | 6.4 | 14.5 | 0.00 | 0.00 | 0.00 | 58 | 1015.0 |
| 20260507130802 | 13 | 183 | 6.4 | 11.3 | 0.00 | 0.00 | 0.00 | 59 | 1015.1 |
| 20260507130402 | 13 | 144 | 3.2 | 14.5 | 0.00 | 0.00 | 0.00 | 60 | 1015.0 |
| 20260507130203 | 13 | 117 | 3.2 | 14.5 | 0.00 | 0.00 | 0.00 | 61 | 1015.1 |
| 20260507130006 | 13 | 154 | 6.4 | 14.5 | 0.00 | 0.00 | 0.00 | 60 | 1015.1 |
| 20260507125802 | 13 | 147 | 6.4 | 12.9 | 0.00 | 0.00 | 0.00 | 60 | 1015.1 |
| 20260507125602 | 13 | 141 | 4.8 | 14.5 | 0.00 | 0.00 | 0.00 | 60 | 1015.0 |
| 20260507125402 | 13 | 162 | 6.4 | 14.5 | 0.00 | 0.00 | 0.00 | 60 | 1015.2 |
| 20260507125002 | 13 | 156 | 8.0 | 17.7 | 0.00 | 0.00 | 0.00 | 60 | 1015.0 |
| 20260507124802 | 13 | 184 | 3.2 | 17.7 | 0.00 | 0.00 | 0.00 | 61 | 1015.1 |
| 20260507124602 | 13 | 213 | 8.0 | 17.7 | 0.00 | 0.00 | 0.00 | 60 | 1015.1 |
| 20260507124404 | 13 | 166 | 6.4 | 16.1 | 0.00 | 0.00 | 0.00 | 61 | 1015.3 |
| 20260507124202 | 13 | 167 | 8.0 | 16.1 | 0.00 | 0.00 | 0.00 | 61 | 1015.3 |
| 20260507124003 | 13 | 176 | 4.8 | 12.9 | 0.00 | 0.00 | 0.00 | 62 | 1015.3 |
| 20260507123603 | 13 | 165 | 6.4 | 12.9 | 0.00 | 0.00 | 0.00 | 63 | 1015.2 |
| 20260507123402 | 13 | 161 | 4.8 | 12.9 | 0.00 | 0.00 | 0.00 | 63 | 1015.1 |
| 20260507123003 | 12 | 144 | 4.8 | 14.5 | 0.00 | 0.00 | 0.00 | 63 | 1015.3 |
| 20260507122805 | 12 | 150 | 3.2 | 14.5 | 0.00 | 0.00 | 0.00 | 65 | 1015.3 |
| 20260507122602 | 12 | 158 | 3.2 | 14.5 | 0.00 | 0.00 | 0.00 | 66 | 1015.2 |
| 20260507122404 | 12 | 129 | 3.2 | 14.5 | 0.00 | 0.00 | 0.00 | 66 | 1015.3 |
| 20260507122202 | 12 | 146 | 4.8 | 11.3 | 0.00 | 0.00 | 0.00 | 67 | 1015.3 |
| 20260507122005 | 12 | 133 | 3.2 | 11.3 | 0.00 | 0.00 | 0.00 | 68 | 1015.3 |
| 20260507121802 | 12 | 140 | 6.4 | 11.3 | 0.00 | 0.00 | 0.00 | 68 | 1015.3 |
| 20260507121402 | 12 | 216 | 6.4 | 14.5 | 0.00 | 0.00 | 0.00 | 68 | 1015.3 |
| 20260507121204 | 12 | 128 | 6.4 | 14.5 | 0.00 | 0.00 | 0.00 | 67 | 1015.3 |
| 20260507121007 | 12 | 148 | 6.4 | 14.5 | 0.00 | 0.00 | 0.00 | 68 | 1015.3 |
| 20260507120804 | 12 | 146 | 6.4 | 14.5 | 0.00 | 0.00 | 0.00 | 68 | 1015.4 |
| 20260507120602 | 11 | 184 | 4.8 | 12.9 | 0.00 | 0.00 | 0.00 | 69 | 1015.3 |
| 20260507120404 | 11 | 164 | 4.8 | 12.9 | 0.00 | 0.00 | 0.00 | 69 | 1015.3 |
| 20260507120202 | 11 | 127 | 3.2 | 12.9 | 0.00 | 0.00 | 0.00 | 69 | 1015.3 |
| 20260507120007 | 11 | 153 | 4.8 | 12.9 | 0.00 | 0.00 | 0.00 | 69 | 1015.3 |